Location: Boiro
(42.6475°N, 8.8834°W)
Time: 07:57:04
(UTC+01:00)

SR - Pass Details

Date: 09 December 2021
Orbit: 583 x 872 km, 66.7° (Epoch: 16 January)

Event Time Altitude Azimuth Distance (km) Brightness Sun altitude
Rises 10:10:17 0° 305° (NW) 2,864 ? 10.2°
Reaches altitude 10° 10:14:27 10° 266° (W) 2,009 ? 10.8°
Maximum altitude 10:15:22 11° 254° (WSW) 1,985 ? 10.9°
Drops below altitude 10° 10:16:18 10° 242° (WSW) 2,036 ? 11.0°
Sets 10:20:41 0° 204° (SSW) 3,021 ? 11.6°
